Location: Lake Lucerne
(45.5315°N, 88.8489°W)
Time: 05:24:45
(UTC-05:00)

Envisat - Visible Passes

Search period start: 21 August 2017 00:00
Search period end: 31 August 2017 00:00
Orbit: 764 x 766 km, 98.2° (Epoch: 20 August)

Date Brightness Start Highest point End Pass type
(mag) Time Alt. Az. Time Alt. Az. Time Alt. Az.
21 Aug 3.4 20:56:42 10° S 21:01:44 66° WSW 21:06:49 10° NNW visible
22 Aug 3.1 20:20:04 10° SSE 20:25:03 60° ENE 20:30:04 10° N visible
22 Aug 5.4 22:01:00 10° SW 22:04:29 18° W 22:07:59 10° NW visible
23 Aug 4.3 21:22:44 10° SSW 21:27:27 38° W 21:32:12 10° NNW visible
24 Aug 3.1 20:45:33 10° SSE 20:50:38 82° WSW 20:55:45 10° NNW visible
24 Aug 5.9 22:29:42 10° W 22:30:27 10° W 22:31:12 10° WNW visible
25 Aug 3.3 20:09:09 10° SE 20:14:00 48° ENE 20:18:53 10° N visible
25 Aug 5.1 21:49:18 10° SW 21:53:16 23° W 21:57:16 10° NW visible
26 Aug 3.9 21:11:25 10° S 21:16:18 48° W 21:21:14 10° NNW visible
27 Aug 3.0 20:34:28 10° SSE 20:39:32 81° ENE 20:44:39 10° NNW visible
27 Aug 5.7 22:16:47 10° WSW 22:19:11 13° W 22:21:38 10° WNW visible
28 Aug 4.8 21:37:44 10° SSW 21:42:05 28° W 21:46:27 10° NW visible
29 Aug 3.5 21:00:10 10° S 21:05:11 60° W 21:10:13 10° NNW visible
30 Aug 3.0 20:23:27 10° SSE 20:28:28 66° ENE 20:33:31 10° N visible
30 Aug 5.5 22:04:44 10° SW 22:07:58 17° W 22:11:12 10° NW visible
